Regional Weather Roundup
Issued by NWS Sioux Falls, SD

Home | Current Version | Previous Version | Text Only | Print | Product List | Glossary Off
Versions: 1 2 3 4 5 6 7 8 9 10 11 12 13 14 15 16 17 18 19 20 21 22 23 24 25 26 27 28 29 30 31 32 33 34 35 36 37 38 39 40 41 42 43 44 45 46 47 48 49 50

000
ASUS43 KFSD 280702
RWRFSD

WEATHER ROUNDUP FOR SE SOUTH DAKOTA/SW MINNESOTA/NW IOWA
NATIONAL WEATHER SERVICE SIOUX FALLS SD
200 AM CDT SAT MAY 28 2016

NOTE: "FAIR" INDICATES FEW OR NO CLOUDS BELOW 12,000 FEET WITH NO
SIGNIFICANT WEATHER AND OR OBSTRUCTIONS TO VISIBILITY.


SDZ038>040-050-052>070-280800-
SOUTHEAST SOUTH DAKOTA

CITY           SKY/WX    TMP DP  RH WIND       PRES   REMARKS
BROOKINGS      CLOUDY    59  57  93 NE5       29.76S
CHAMBERLAIN    NOT AVBL
HURON          CLOUDY    60  58  92 N5        29.76F
MADISON        FAIR      59  59 100 NE10      29.76F
MITCHELL       CLOUDY    62  59  90 N7        29.75F
SIOUX FALLS    CLOUDY    62  58  86 N9        29.73F
WINNER         FAIR      56  53  90 NW7       29.79F
YANKTON        CLOUDY    61  57  88 SW5       29.72F
$$

MNZ071-072-080-081-089-090-097-098-280800-
SOUTHWEST MINNESOTA

CITY           SKY/WX    TMP DP  RH WIND       PRES   REMARKS
FAIRMONT       CLOUDY    66  61  82 SE9       29.74F
JACKSON        CLOUDY    64  59  82 E3        29.76S
LUVERNE        CLOUDY    63  55  77 NE3       29.74S
MARSHALL       CLOUDY    62  60  93 NE12      29.77S
MONTEVIDEO     CLOUDY    61  57  88 SE6       29.79S
PIPESTONE      CLOUDY    63  59  88 NE6       29.76S
REDWOOD FALLS  CLOUDY    61  58  90 NE6       29.76F
TRACY          CLOUDY    63  62  97 NE5       29.77S FOG
WINDOM         CLOUDY    63  61  94 CALM      29.75S
WORTHINGTON    MOCLDY    63  61  93 E9        29.75S
$$

IAZ001>003-012>014-020>022-031-032-NEZ013-014-SDZ071-280800-
NORTHWEST IOWA

CITY           SKY/WX    TMP DP  RH WIND       PRES   REMARKS
ESTHERVILLE    CLOUDY    66  61  84 S13       29.75R
SIOUX CITY     LGT RAIN  63  58  83 E8        29.69F
SPENCER        LGT RAIN  65  60  84 S17       29.74S
STORM LAKE     CLOUDY    64  64 100 S5        29.74F
$$

ABBREVIATIONS USED IN REMARKS
   TC - TEMPERATURE IN CELSIUS
  WCI - WIND CHILL INDEX
   HX - HEAT INDEX
  VSB - VISIBILITY





USA.gov is the U.S. government's official web portal to all federal, state and local government web resources and services.